Location: DARK SKY Beskydy - Park tmavé oblohy, www.darkskybeskydy.cz
(49.4926°N, 18.5016°E)
Time: 15:24:02
(UTC+01:00)

Vanguard 1 - Pass Details

Date: 16 November 2025
Orbit: 650 x 3821 km, 34.2° (Epoch: 07 December)

Event Time Altitude Azimuth Distance (km) Brightness Sun altitude
Rises 20:51:54 0° 273° (W) 7,831 15.3 -46.0°
Reaches altitude 10° 20:57:39 10° 267° (W) 6,909 14.8 -46.8°
Maximum altitude 21:17:47 40° 209° (SSW) 4,446 13.1 -49.5°
Enters shadow 21:18:24 40° 206° (SSW) 4,418 13.1 -49.6°
